[[{"header":{"parameterUnit":"m.s-1","parameterCategory":2,"la1":30.2991,"la2":30.254,"lo1":-89.0895,"lo2":-89.0444,"dy":0.0017,"dx":0.0017,"nx":28,"ny":28,"refTime":"2024-04-16T21:00:00:Z","depth":"0","parameterNumber":2,"parameterNumberName":"U-component_of_CURRENTS"},"data":[0,0,0,0,0,0,0,0,0,0,0,0,0,0,0,0,0,0,0,0,0,0,0,0,0,0,0,0,0,0,0,0,0,0,0,0,0,0,0,0,0,0,0,0,0,0,0,0,0,0,0,0,0,0,0,0,0,0,0.2828,0.2828,0,0.2799,0.2798,0.2798,0.2764,0.2764,0.2763,0.2763,0.2729,0.2729,0.2728,0,0,0,0,0,0,0,0,0,0,0,0,0,0.2871,0.2871,0.2828,0.2828,0.2828,0.2799,0.2798,0.2798,0.2764,0.2764,0.2763,0.2763,0.273,0.2729,0.2728,0,0,0,0,0,0,0,0,0,0,0,0,0,0.2847,0.287,0.2828,0.2809,0.2807,0.2799,0.2798,0.2798,0.2764,0.2764,0.2763,0.2763,0.273,0.2729,0.2728,0.2734,0,0,0.2726,0.2725,0,0,0,0,0,0,0,0,0.2848,0.2845,0.2812,0.281,0.2808,0.2786,0.2801,0.2777,0.2765,0.2779,0.2763,0.2763,0.2749,0.2747,0.274,0.2732,0.2731,0.2726,0.2725,0.2725,0.2724,0,0,0,0,0,0,0,0.285,0.2846,0.2815,0.2812,0.2809,0.2807,0.2803,0.2797,0.2766,0.2778,0.2775,0.2775,0.2748,0.2741,0.2739,0.273,0.2726,0.2725,0.2724,0.2724,0.2739,0.2739,0,0,0,0,0,0,0.2856,0.2848,0.2816,0.2814,0.2829,0.2807,0.2802,0.2792,0.2766,0.2762,0.2775,0.2773,0.2743,0.274,0.2738,0.2763,0.2725,0.2724,0.2723,0.2738,0.2739,0.274,0,0,0,0,0,0,0.2857,0.2854,0.2817,0.2832,0.2828,0.2807,0.2796,0.2792,0.2789,0.2765,0.276,0.2777,0.2742,0.2739,0.2741,0.2761,0.2724,0.2723,0.2737,0.2738,0.2739,0.2801,0,0,0,0,0,0,0.2859,0.2854,0.2856,0.2832,0.2827,0.2823,0.2797,0.2792,0.279,0.2787,0.2765,0.2761,0.2742,0.2743,0.2741,0.2759,0.2722,0.2736,0.2737,0.2739,0.2798,0.2805,0.281,0,0,0,0,0,0.286,0.2868,0.2856,0.2853,0.2828,0.2824,0.2822,0.2804,0.2791,0.2797,0.2781,0.2762,0.2752,0.2743,0.274,0.2759,0.2735,0.2737,0.2739,0.2796,0.2803,0.281,0,0,0,0,0,0,0.2888,0.2865,0.2851,0.2851,0.2842,0.2819,0.2828,0.2811,0.2803,0.2801,0.2773,0.2769,0.2781,0.2761,0.2752,0.2768,0.274,0.2742,0.2784,0.2792,0.2798,0.2857,0.2721,0,0,0,0,0,0.2895,0.2891,0.2872,0.2871,0.2873,0.2851,0.2849,0.2835,0.2822,0.2818,0.28,0.2787,0.2787,0.2782,0.2778,0.2784,0.2825,0.2794,0.28,0.2805,0.2852,0.2903,0.2919,0.2746,0.2746,0.2746,0,0,0.2901,0.2892,0.2887,0.2877,0.2869,0.2877,0.2848,0.285,0.2857,0.2817,0.2824,0.2812,0.2796,0.2806,0.2809,0.279,0.2881,0.2808,0.2812,0.2858,0.2907,0.2924,0.2939,0.2748,0.2748,0.2747,0,0,0.292,0.291,0.2916,0.2917,0.2913,0.2903,0.2907,0.289,0.2887,0.2889,0.2869,0.288,0.2856,0.2864,0.2862,0.2901,0.2915,0.2881,0.2956,0.3003,0.3018,0.3032,0.3134,0.3156,0.2878,0.2878,0.2878,0,0.293,0.2931,0.2919,0.2933,0.2942,0.2918,0.2935,0.2932,0.2916,0.2932,0.2901,0.2916,0.2896,0.2937,0.2951,0.292,0.2964,0.2926,0.3014,0.3028,0.3042,0.3142,0.3166,0.2881,0.2881,0.288,0.288,0,0.2951,0.2959,0.2969,0.2974,0.2987,0.2996,0.2996,0.3005,0.2995,0.2994,0.3031,0.3012,0.3028,0.3013,0.2996,0.3076,0.3086,0.3021,0.3001,0.3064,0.3164,0.3189,0.2886,0.2885,0.2884,0.2883,0,0,0.2953,0.2976,0.2978,0.2994,0.301,0.3019,0.3052,0.3078,0.311,0.3103,0.3152,0.316,0.3161,0.3163,0.3139,0.3183,0.3314,0.3152,0.3152,0.3266,0.3472,0.3393,0.3412,0.3255,0.3259,0.3262,0.3515,0,0.297,0.2998,0.3012,0.3048,0.3066,0.3081,0.3115,0.3143,0.316,0.32,0.3214,0.3244,0.3211,0.3221,0.3267,0.3288,0.3377,0.3256,0.3385,0.3392,0.3322,0.3436,0.3201,0.3398,0.3539,0.3543,0.3546,0,0.2987,0.3003,0.3038,0.3089,0.3102,0.3124,0.319,0.3218,0.3282,0.3299,0.3351,0.3356,0.3438,0.3378,0.3517,0.3438,0.3496,0.3518,0.3526,0.3455,0.3356,0.3352,0.3437,0.3323,0.3583,0.358,0.3577,0,0.2989,0.3028,0.3055,0.3069,0.3119,0.3152,0.3184,0.325,0.3292,0.3373,0.3414,0.3493,0.3536,0.3607,0.3665,0.3601,0.3824,0.372,0.3734,0.3731,0.3563,0.3537,0.3563,0.3875,0.3874,0.3873,0.3873,0,0.3006,0.3033,0.3054,0.3071,0.312,0.3159,0.3228,0.3274,0.3351,0.3413,0.3466,0.3532,0.3595,0.3704,0.3745,0.3835,0.3897,0.3813,0.3798,0.3578,0.3551,0.3466,0.3412,0.3883,0.3881,0.3879,0.3877,0,0.3019,0.3029,0.3065,0.3106,0.3123,0.3161,0.324,0.3288,0.3366,0.3452,0.3484,0.3603,0.3732,0.3823,0.396,0.3934,0.3893,0.4046,0.3816,0.3767,0.3587,0.3544,0.3504,0.3411,0.4086,0.4086,0.4086,0,0.3026,0.3041,0.3078,0.3094,0.3115,0.3168,0.3206,0.3285,0.3334,0.3485,0.3523,0.3689,0.3773,0.3966,0.3977,0.4083,0.3936,0.3904,0.3718,0.3605,0.3548,0.3407,0.3321,0.3551,0.3546,0.3543,0.3539,0,0.3037,0.3047,0.3064,0.3093,0.3124,0.3169,0.3224,0.326,0.3357,0.3431,0.3548,0.3634,0.3809,0.3782,0.3902,0.3905,0.3647,0.3826,0.3749,0.3192,0.3003,0.2893,0.341,0.3505,0.3509,0.3511,0.3513,0.3514,0.3032,0.3041,0.3047,0.3074,0.3113,0.3141,0.3141,0.3203,0.3263,0.3331,0.3479,0.3547,0.3548,0.366,0.3653,0.3446,0.3497,0.3267,0.326,0.3157,0.294,0.342,0.3445,0.3447,0.345,0.3452,0.3454,0,0.2991,0.3002,0.3028,0.3042,0.3052,0.3089,0.3123,0.3087,0.3103,0.3228,0.33,0.3281,0.3206,0.3182,0.3024,0.2888,0.2742,0.2781,0.2515,0.2486,0.2949,0.2791,0.2621,0.2621,0.2622,0.2622,0.2622,0.2622,0.2969,0.2956,0.2961,0.295,0.2966,0.292,0.2906,0.2873,0.2913,0.2892,0.2891,0.2938,0.2882,0.271,0.2486,0.2415,0.2241,0.2106,0.2199,0.2489,0.2532,0.2572,0.2411,0.2164,0.2164,0.1563,0.1559,0.1555]},{"header":{"parameterUnit":"m.s-1","parameterCategory":2,"la1":30.2991,"la2":30.254,"lo1":-89.0895,"lo2":-89.0444,"dy":0.0017,"dx":0.0017,"nx":28,"ny":28,"refTime":"2024-04-16T21:00:00:Z","depth":"0","parameterNumber":3,"parameterNumberName":"V-component_of_CURRENTS"},"data":[0,0,0,0,0,0,0,0,0,0,0,0,0,0,0,0,0,0,0,0,0,0,0,0,0,0,0,0,0,0,0,0,0,0,0,0,0,0,0,0,0,0,0,0,0,0,0,0,0,0,0,0,0,0,0,0,0,0,-0.0234,-0.0234,0,-0.0264,-0.0264,-0.0265,-0.0291,-0.0291,-0.0291,-0.0291,-0.0362,-0.0363,-0.0365,0,0,0,0,0,0,0,0,0,0,0,0,0,-0.0219,-0.0219,-0.0234,-0.0234,-0.0234,-0.0263,-0.0264,-0.0265,-0.0291,-0.0291,-0.0291,-0.0291,-0.0361,-0.0363,-0.0365,0,0,0,0,0,0,0,0,0,0,0,0,0,-0.0236,-0.0219,-0.0234,-0.0249,-0.0251,-0.0263,-0.0264,-0.0265,-0.0291,-0.0291,-0.0291,-0.0291,-0.036,-0.0363,-0.0366,-0.0378,0,0,-0.0374,-0.0375,0,0,0,0,0,0,0,0,-0.0235,-0.0237,-0.0247,-0.0248,-0.025,-0.0272,-0.0285,-0.0304,-0.0291,-0.0278,-0.0291,-0.0291,-0.0334,-0.0339,-0.0346,-0.0381,-0.0384,-0.0374,-0.0375,-0.0377,-0.0377,0,0,0,0,0,0,0,-0.0234,-0.0236,-0.0247,-0.0247,-0.0249,-0.0261,-0.0264,-0.0288,-0.0307,-0.0279,-0.028,-0.028,-0.0335,-0.0344,-0.0348,-0.0385,-0.0374,-0.0376,-0.0378,-0.0379,-0.0423,-0.0423,0,0,0,0,0,0,-0.0225,-0.0235,-0.0246,-0.0248,-0.0241,-0.0261,-0.0264,-0.0266,-0.0306,-0.0311,-0.028,-0.0281,-0.0339,-0.0345,-0.0351,-0.0341,-0.0377,-0.0379,-0.0381,-0.0424,-0.0423,-0.0423,0,0,0,0,0,0,-0.0225,-0.0226,-0.0245,-0.0241,-0.0244,-0.0261,-0.0263,-0.0267,-0.0272,-0.0306,-0.0312,-0.0282,-0.0339,-0.0347,-0.0364,-0.0345,-0.038,-0.0383,-0.0424,-0.0424,-0.0423,-0.034,0,0,0,0,0,0,-0.0224,-0.0226,-0.0225,-0.024,-0.0243,-0.0247,-0.0263,-0.0267,-0.0271,-0.0273,-0.0309,-0.0316,-0.034,-0.036,-0.0367,-0.035,-0.0385,-0.0425,-0.0424,-0.0423,-0.0343,-0.0336,-0.0331,0,0,0,0,0,-0.0224,-0.0218,-0.0225,-0.0226,-0.0242,-0.0246,-0.0249,-0.0263,-0.0271,-0.027,-0.0292,-0.0315,-0.036,-0.0361,-0.037,-0.0353,-0.0425,-0.0424,-0.0423,-0.0346,-0.0338,-0.0331,0,0,0,0,0,0,-0.0207,-0.022,-0.0228,-0.0226,-0.0233,-0.0249,-0.0249,-0.0259,-0.0275,-0.0278,-0.0311,-0.0319,-0.0327,-0.0355,-0.0356,-0.0365,-0.0396,-0.0397,-0.0334,-0.0327,-0.0321,-0.027,-0.0387,0,0,0,0,0,-0.0203,-0.0204,-0.0217,-0.0214,-0.0217,-0.0233,-0.0237,-0.0246,-0.026,-0.0268,-0.0291,-0.0316,-0.033,-0.034,-0.0363,-0.0369,-0.0356,-0.0365,-0.0359,-0.0353,-0.0318,-0.0286,-0.0272,-0.042,-0.042,-0.042,0,0,-0.0194,-0.0201,-0.0202,-0.021,-0.0219,-0.0209,-0.0236,-0.0237,-0.0222,-0.0274,-0.0266,-0.0298,-0.0328,-0.0331,-0.0337,-0.0351,-0.0306,-0.0352,-0.0347,-0.0314,-0.0283,-0.0268,-0.0255,-0.0419,-0.042,-0.042,0,0,-0.017,-0.0185,-0.0175,-0.0179,-0.0186,-0.0193,-0.019,-0.0205,-0.0205,-0.0208,-0.0234,-0.024,-0.0282,-0.028,-0.0289,-0.0263,-0.0276,-0.029,-0.0213,-0.0183,-0.0169,-0.0157,-0.0119,-0.0104,-0.0284,-0.0284,-0.0284,0,-0.0156,-0.0145,-0.0172,-0.016,-0.0149,-0.018,-0.0154,-0.0161,-0.0176,-0.0157,-0.0197,-0.0207,-0.0245,-0.0209,-0.0207,-0.0243,-0.0231,-0.0237,-0.017,-0.0158,-0.0147,-0.0111,-0.0096,-0.028,-0.028,-0.0281,-0.0281,0,-0.0122,-0.0113,-0.0106,-0.0097,-0.0092,-0.0079,-0.0084,-0.0076,-0.0086,-0.0085,-0.0063,-0.0107,-0.0101,-0.0127,-0.0163,-0.0104,-0.0122,-0.0166,-0.018,-0.0126,-0.0093,-0.0078,-0.0274,-0.0276,-0.0277,-0.0278,0,0,-0.0083,-0.008,-0.0075,-0.0053,-0.0054,-0.0039,-0.0009,0.0025,0.0069,0.004,0.0103,0.0066,0.005,0.0041,-0.0002,0.0015,0.0086,-0.004,-0.0041,0.0017,0.0165,0.0126,0.0138,0.0049,0.0052,0.0054,0.0159,0,-0.004,-0.0,-0.0008,0.0046,0.0069,0.0065,0.0105,0.0129,0.0138,0.0183,0.0165,0.0188,0.0111,0.0115,0.0126,0.009,0.0128,0.0063,0.009,0.0092,0.0066,0.0155,0.0152,0.0242,0.0173,0.0175,0.0177,0,-0.0,0.0027,0.008,0.0134,0.0147,0.0177,0.0254,0.0284,0.0333,0.0341,0.0369,0.0345,0.0376,0.029,0.0312,0.0269,0.0242,0.0212,0.0214,0.0168,0.0082,0.0175,0.0271,0.0155,0.0199,0.0198,0.0196,0,0.0042,0.0093,0.0144,0.0157,0.0206,0.025,0.0287,0.0339,0.0389,0.0451,0.0491,0.051,0.053,0.0502,0.0433,0.0379,0.0456,0.0369,0.0327,0.0323,0.0325,0.0316,0.0333,0.0422,0.0422,0.0421,0.0421,0,0.0084,0.0126,0.0171,0.0197,0.0288,0.0305,0.0402,0.044,0.0511,0.0594,0.0578,0.0647,0.0582,0.06,0.0519,0.0486,0.0533,0.0386,0.0363,0.035,0.0343,0.0241,0.0153,0.0425,0.0424,0.0424,0.0423,0,0.0103,0.0125,0.0194,0.0269,0.03,0.0365,0.0461,0.0534,0.059,0.07,0.0728,0.0776,0.0806,0.0746,0.0719,0.0608,0.0502,0.0544,0.0537,0.0511,0.0312,0.0228,0.0248,0.0191,0.0513,0.0513,0.0513,0,0.0113,0.0146,0.0243,0.0295,0.0329,0.0421,0.049,0.0565,0.0642,0.0782,0.0846,0.0919,0.0991,0.0945,0.0797,0.0707,0.056,0.0587,0.0473,0.0345,0.0236,0.0179,0.0125,0.0514,0.0514,0.0514,0.0514,0,0.0146,0.0177,0.0236,0.0335,0.0416,0.051,0.0613,0.0686,0.0793,0.0905,0.1057,0.1135,0.1115,0.105,0.0901,0.0781,0.0482,0.0579,0.0463,0.0271,0.02,0.0118,0.0397,0.0514,0.0514,0.0514,0.0514,0.0514,0.0183,0.0226,0.0301,0.0392,0.0481,0.059,0.0679,0.0802,0.0951,0.115,0.121,0.1396,0.1251,0.1065,0.0877,0.0515,0.0505,0.0373,0.0298,0.0265,0.0165,0.0443,0.0503,0.0503,0.0503,0.0503,0.0503,0,0.0245,0.0281,0.0356,0.0474,0.0566,0.0605,0.0758,0.0864,0.1053,0.1293,0.1457,0.156,0.1315,0.104,0.0562,0.0292,0.018,0.0133,0.0057,0.0023,0.0303,0.0253,0.0241,0.0241,0.0241,0.0241,0.0241,0.0242,0.0284,0.0355,0.0375,0.0518,0.0599,0.0736,0.0822,0.0996,0.1192,0.1509,0.1722,0.186,0.166,0.078,0.0178,0.0014,-0.0177,-0.0201,-0.0294,-0.0121,-0.0105,-0.0089,-0.0155,-0.0252,-0.0252,-0.0535,-0.0539,-0.0541]}],[{"header":{"parameterUnit":"m.s-1","parameterCategory":2,"la1":30.2991,"la2":30.254,"lo1":-89.0895,"lo2":-89.0444,"dy":0.0017,"dx":0.0017,"nx":28,"ny":28,"refTime":"2024-04-16T21:00:00:Z","depth":"2","parameterNumber":2,"parameterNumberName":"U-component_of_CURRENTS"},"data":[0,0,0,0,0,0,0,0,0,0,0,0,0,0,0,0,0,0,0,0,0,0,0,0,0,0,0,0,0,0,0,0,0,0,0,0,0,0,0,0,0,0,0,0,0,0,0,0,0,0,0,0,0,0,0,0,0,0,0.1896,0.1896,0,0.1888,0.1888,0.1887,0.1888,0.1889,0.1889,0.189,0.1941,0.1942,0.1943,0,0,0,0,0,0,0,0,0,0,0,0,0,0.193,0.1929,0.1896,0.1896,0.1896,0.1888,0.1888,0.1887,0.1888,0.1889,0.1889,0.189,0.1941,0.1942,0.1943,0,0,0,0,0,0,0,0,0,0,0,0,0,0.1915,0.1928,0.1896,0.1899,0.1899,0.1888,0.1888,0.1887,0.1888,0.1889,0.189,0.189,0.194,0.1942,0.1943,0.1938,0,0,0.1947,0.1948,0,0,0,0,0,0,0,0,0.1915,0.1913,0.1898,0.1898,0.1899,0.1893,0.1918,0.1908,0.1888,0.1889,0.189,0.1891,0.1932,0.1934,0.1925,0.1941,0.1943,0.1947,0.1948,0.1949,0.1949,0,0,0,0,0,0,0,0.1916,0.1913,0.1889,0.1898,0.1899,0.1906,0.1904,0.1916,0.1905,0.1889,0.189,0.1894,0.1932,0.1924,0.1927,0.1944,0.1947,0.1949,0.1949,0.195,0.2026,0.2027,0,0,0,0,0,0,0.1922,0.1914,0.189,0.189,0.1913,0.1905,0.1903,0.1891,0.1904,0.1907,0.1893,0.1894,0.1921,0.1925,0.1929,0.1978,0.1949,0.195,0.1951,0.2025,0.2026,0.2027,0,0,0,0,0,0,0.1923,0.1919,0.189,0.1906,0.1903,0.1904,0.1891,0.1891,0.1909,0.1907,0.1911,0.1915,0.1922,0.1927,0.1953,0.1979,0.1951,0.1952,0.2023,0.2025,0.2027,0.2043,0,0,0,0,0,0,0.1923,0.1919,0.1921,0.1905,0.1902,0.1899,0.1891,0.189,0.191,0.1912,0.1927,0.193,0.1923,0.1951,0.1954,0.198,0.1953,0.2022,0.2024,0.2026,0.2041,0.2046,0.2049,0,0,0,0,0,0.1924,0.1922,0.1921,0.1919,0.1901,0.19,0.1899,0.1901,0.1911,0.1919,0.1928,0.1931,0.1968,0.1952,0.1957,0.1983,0.2021,0.2024,0.2026,0.204,0.2045,0.2049,0,0,0,0,0,0,0.193,0.1922,0.192,0.1913,0.1916,0.1902,0.1912,0.1917,0.1928,0.1935,0.1938,0.1942,0.1978,0.198,0.1963,0.2013,0.1999,0.2002,0.2008,0.2013,0.2016,0.2069,0.1954,0,0,0,0,0,0.1933,0.1932,0.1926,0.1922,0.1928,0.1926,0.1931,0.1931,0.1935,0.1941,0.1953,0.1969,0.1987,0.1999,0.2012,0.2035,0.2072,0.2059,0.2063,0.2066,0.2113,0.2153,0.2165,0.2036,0.2036,0.2036,0,0,0.1927,0.193,0.1925,0.1925,0.1927,0.1937,0.1931,0.194,0.1959,0.1946,0.198,0.1985,0.1998,0.2021,0.2038,0.2028,0.2123,0.2069,0.2072,0.2118,0.2157,0.217,0.2181,0.2038,0.2038,0.2037,0,0,0.193,0.1927,0.1934,0.1941,0.1955,0.1954,0.1967,0.1969,0.1985,0.2007,0.2009,0.2034,0.2055,0.2067,0.2077,0.2116,0.2144,0.212,0.218,0.2216,0.2228,0.2238,0.2306,0.2322,0.2118,0.2118,0.2118,0,0.1933,0.1932,0.1937,0.1954,0.1965,0.1971,0.1986,0.1999,0.2011,0.2033,0.2027,0.2085,0.2083,0.2134,0.2146,0.2128,0.2167,0.2153,0.2222,0.2233,0.2244,0.231,0.2328,0.2119,0.2119,0.2119,0.2119,0,0.1947,0.1947,0.1955,0.1977,0.1994,0.2002,0.2025,0.2046,0.2067,0.2082,0.2143,0.2148,0.2189,0.2184,0.218,0.2256,0.2266,0.222,0.2209,0.2258,0.2325,0.2343,0.2121,0.2121,0.212,0.212,0,0,0.1945,0.196,0.1963,0.197,0.2005,0.2012,0.2059,0.2095,0.2132,0.2165,0.2227,0.2261,0.2281,0.2299,0.2298,0.2337,0.2428,0.2323,0.2324,0.2392,0.2549,0.2441,0.245,0.2389,0.2392,0.2395,0.2567,0,0.1956,0.1975,0.1991,0.2009,0.2019,0.2046,0.2092,0.2132,0.2167,0.2225,0.2272,0.2328,0.232,0.2347,0.2389,0.2418,0.2478,0.2389,0.2494,0.2499,0.2396,0.2468,0.2243,0.2367,0.2585,0.2588,0.259,0,0.1964,0.1979,0.2008,0.2023,0.2035,0.2053,0.212,0.2169,0.2254,0.2286,0.2362,0.2402,0.25,0.2466,0.2593,0.2539,0.2573,0.2592,0.2597,0.2514,0.2425,0.2353,0.2392,0.2621,0.2619,0.2616,0.2614,0,0.1955,0.1974,0.2001,0.2011,0.2056,0.2076,0.2105,0.2184,0.2249,0.2346,0.2403,0.2501,0.2572,0.2637,0.269,0.2656,0.2817,0.2752,0.2705,0.2699,0.2541,0.2514,0.2862,0.2862,0.2862,0.2861,0.2861,0,0.1939,0.1946,0.1993,0.2002,0.2057,0.2082,0.2166,0.2195,0.2289,0.2391,0.2451,0.2537,0.262,0.2711,0.2744,0.2793,0.2862,0.2764,0.2742,0.2539,0.2511,0.275,0.2734,0.2868,0.2866,0.2865,0.2864,0,0.191,0.1935,0.1974,0.2028,0.2056,0.21,0.2198,0.2258,0.2332,0.2469,0.2516,0.2605,0.2716,0.279,0.2892,0.2852,0.2901,0.2898,0.2671,0.2617,0.2758,0.2742,0.2887,0.2884,0.2882,0.2881,0.2879,0,0.1912,0.1929,0.2017,0.2067,0.2088,0.2169,0.2242,0.2296,0.2365,0.2511,0.2571,0.2695,0.2752,0.2845,0.2822,0.2868,0.292,0.266,0.2535,0.2801,0.2765,0.2751,0.2738,0.2353,0.2347,0.2343,0.2339,0,0.1925,0.1957,0.1986,0.2108,0.2173,0.2248,0.232,0.2352,0.246,0.2519,0.2572,0.2608,0.2712,0.2605,0.2642,0.263,0.2623,0.2566,0.2923,0.2352,0.2302,0.2265,0.2269,0.2299,0.2303,0.2306,0.2308,0.2309,0.1952,0.1995,0.2061,0.2136,0.2219,0.2254,0.2259,0.2313,0.2348,0.2352,0.2465,0.2418,0.2439,0.2344,0.2293,0.2259,0.2441,0.2311,0.2323,0.2341,0.2219,0.2165,0.2117,0.212,0.2122,0.2124,0.2126,0,0.1986,0.2028,0.2098,0.2158,0.2169,0.2245,0.2281,0.2207,0.216,0.2197,0.2179,0.1968,0.1902,0.1957,0.184,0.1827,0.1799,0.175,0.1694,0.1736,0.1774,0.162,0.1361,0.1358,0.1356,0.1354,0,0,0.1998,0.2047,0.2047,0.2054,0.2111,0.207,0.2041,0.1952,0.1904,0.1734,0.1689,0.178,0.1872,0.1575,0.1546,0.1435,0.1566,0.1374,0.1993,0.1969,0.2002,0.2108,0.1922,0,0,0,0,0]},{"header":{"parameterUnit":"m.s-1","parameterCategory":2,"la1":30.2991,"la2":30.254,"lo1":-89.0895,"lo2":-89.0444,"dy":0.0017,"dx":0.0017,"nx":28,"ny":28,"refTime":"2024-04-16T21:00:00:Z","depth":"2","parameterNumber":3,"parameterNumberName":"V-component_of_CURRENTS"},"data":[0,0,0,0,0,0,0,0,0,0,0,0,0,0,0,0,0,0,0,0,0,0,0,0,0,0,0,0,0,0,0,0,0,0,0,0,0,0,0,0,0,0,0,0,0,0,0,0,0,0,0,0,0,0,0,0,0,0,0.0155,0.0154,0,0.0133,0.0133,0.0133,0.0111,0.011,0.011,0.011,0.0051,0.005,0.0048,0,0,0,0,0,0,0,0,0,0,0,0,0,0.014,0.0141,0.0155,0.0154,0.0154,0.0133,0.0133,0.0133,0.0111,0.011,0.011,0.011,0.0051,0.005,0.0048,0,0,0,0,0,0,0,0,0,0,0,0,0,0.0136,0.0141,0.0155,0.014,0.0139,0.0134,0.0133,0.0133,0.0111,0.011,0.011,0.0109,0.0052,0.005,0.0048,0.0047,0,0,0.0042,0.0042,0,0,0,0,0,0,0,0,0.0136,0.0137,0.0143,0.0141,0.014,0.0124,0.0107,0.0102,0.0111,0.0122,0.011,0.0109,0.0072,0.0068,0.0067,0.0044,0.0042,0.0042,0.0041,0.004,0.004,0,0,0,0,0,0,0,0.0137,0.0137,0.0147,0.0142,0.0141,0.0123,0.0122,0.0106,0.01,0.0121,0.0119,0.0116,0.0071,0.0069,0.0065,0.0041,0.0042,0.0041,0.0039,0.0039,0.0004,0.0005,0,0,0,0,0,0,0.0141,0.0138,0.0147,0.0146,0.0136,0.0123,0.0122,0.013,0.0101,0.0096,0.0117,0.0115,0.0072,0.0067,0.0063,0.0061,0.004,0.0039,0.0037,0.0004,0.0004,0.0005,0,0,0,0,0,0,0.0141,0.0143,0.0148,0.014,0.014,0.0124,0.0133,0.013,0.0121,0.0098,0.0092,0.011,0.0071,0.0065,0.0053,0.0058,0.0038,0.0036,0.0004,0.0004,0.0004,0.0056,0,0,0,0,0,0,0.0141,0.0143,0.0147,0.0141,0.014,0.0148,0.0133,0.013,0.012,0.0118,0.0091,0.0085,0.0071,0.0056,0.0052,0.0055,0.0035,0.0004,0.0004,0.0004,0.0054,0.0058,0.0061,0,0,0,0,0,0.0141,0.0151,0.0148,0.0148,0.0148,0.0148,0.0147,0.0133,0.012,0.0122,0.0106,0.0086,0.0055,0.0055,0.005,0.0053,0.0003,0.0004,0.0004,0.0052,0.0057,0.0061,0,0,0,0,0,0,0.0145,0.015,0.0146,0.0156,0.0153,0.0144,0.0142,0.0132,0.0121,0.0117,0.0091,0.0085,0.0076,0.0056,0.0057,0.0043,0.0024,0.0024,0.0063,0.0067,0.0071,0.0073,0.0033,0,0,0,0,0,0.0149,0.0159,0.0157,0.0164,0.0163,0.0151,0.0147,0.0142,0.0132,0.0126,0.0107,0.0087,0.0074,0.0065,0.005,0.0043,0.0028,0.004,0.0044,0.0047,0.0044,0.0034,0.0037,0.0006,0.0006,0.0006,0,0,0.0152,0.0156,0.016,0.0166,0.016,0.0168,0.0148,0.0147,0.0152,0.0121,0.0118,0.0099,0.0075,0.0072,0.0065,0.0056,0.0049,0.0048,0.0051,0.0046,0.0035,0.0038,0.0041,0.0006,0.0006,0.0006,0,0,0.0165,0.0166,0.0179,0.0181,0.0179,0.0176,0.0175,0.0168,0.0163,0.0159,0.014,0.0126,0.0102,0.0093,0.0083,0.0096,0.007,0.0086,0.0107,0.0098,0.0101,0.0103,0.0097,0.0098,0.0088,0.0088,0.0088,0,0.0165,0.0187,0.018,0.0194,0.02,0.0181,0.0197,0.019,0.018,0.0181,0.0163,0.0136,0.0114,0.0113,0.0116,0.0105,0.0095,0.0095,0.0104,0.0106,0.0107,0.01,0.01,0.0091,0.0091,0.009,0.009,0,0.019,0.0206,0.0213,0.0228,0.0232,0.0243,0.0238,0.0239,0.0225,0.0217,0.0209,0.0181,0.0167,0.0155,0.0137,0.0136,0.0125,0.0112,0.0096,0.0113,0.0105,0.0104,0.0095,0.0094,0.0093,0.0092,0,0,0.0199,0.0226,0.023,0.025,0.0255,0.0267,0.0275,0.0283,0.0297,0.0268,0.028,0.0244,0.0224,0.021,0.0186,0.017,0.017,0.0144,0.0142,0.0143,0.0151,0.0129,0.0126,0.0159,0.0159,0.0159,0.0145,0,0.0221,0.0262,0.0267,0.0305,0.0327,0.0322,0.0338,0.0341,0.0334,0.034,0.0301,0.0301,0.0247,0.0248,0.0219,0.0188,0.0169,0.0174,0.0128,0.0127,0.0109,0.0125,0.0139,0.0127,0.0145,0.0145,0.0145,0,0.0247,0.0275,0.0315,0.0362,0.037,0.039,0.0422,0.0432,0.043,0.0426,0.0405,0.0375,0.0348,0.0301,0.0241,0.0247,0.0198,0.0164,0.0163,0.0121,0.0103,0.0109,0.0125,0.0144,0.0144,0.0144,0.0144,0,0.0265,0.0314,0.035,0.0363,0.0403,0.0427,0.0448,0.046,0.049,0.0484,0.0509,0.0451,0.0448,0.0369,0.0284,0.0267,0.0219,0.0191,0.0123,0.0121,0.0113,0.011,0.0144,0.0144,0.0144,0.0144,0.0144,0,0.0293,0.0326,0.0368,0.0389,0.045,0.0463,0.0514,0.0533,0.0568,0.0626,0.0558,0.0596,0.0465,0.0419,0.0318,0.0225,0.0246,0.0127,0.0116,0.0131,0.013,0.0123,0.0121,0.0144,0.0144,0.0144,0.0144,0,0.0306,0.0328,0.0382,0.0436,0.0459,0.0504,0.0577,0.0623,0.0648,0.0726,0.0736,0.0714,0.0657,0.0521,0.0408,0.0291,0.0192,0.0152,0.0177,0.0167,0.009,0.009,0.0072,0.0071,0.007,0.007,0.0069,0,0.0314,0.0341,0.0413,0.0457,0.0487,0.0549,0.0603,0.0657,0.0728,0.0815,0.0878,0.0841,0.0836,0.0644,0.0434,0.0249,0.0218,0.0126,0.0082,0.0091,0.0082,0.0084,0.0085,0.0099,0.0098,0.0098,0.0098,0,0.0341,0.0364,0.0414,0.0495,0.0566,0.0647,0.0743,0.0828,0.0912,0.0992,0.1106,0.1107,0.0917,0.0727,0.0446,0.0312,0.0148,0.0115,0.0133,0.0109,0.0113,0.0105,0.0106,0.0096,0.0096,0.0096,0.0096,0.0096,0.037,0.0407,0.047,0.0554,0.064,0.0773,0.0862,0.0979,0.1124,0.1262,0.126,0.1242,0.1008,0.0641,0.0418,0.0155,0.0161,0.0053,0.0055,0.0057,0.0056,0.0059,0.0032,0.0031,0.0031,0.0031,0.0031,0,0.0428,0.0463,0.0528,0.0649,0.076,0.0785,0.0974,0.1075,0.1263,0.1331,0.1394,0.1171,0.0958,0.0685,0.0305,0.0082,0.0061,0.0002,0.0031,0.0034,0.0037,0.0036,0.0005,0.0005,0.0004,0.0004,0,0,0.0466,0.0533,0.0559,0.0739,0.0819,0.0975,0.1092,0.1246,0.1335,0.1408,0.1369,0.1307,0.1001,0.072,0.0432,0.0221,0.0172,0.0169,0.0211,0.0283,0.0289,0.0087,0.0092,0,0,0,0,0]}],[{"header":{"parameterUnit":"m.s-1","parameterCategory":2,"la1":30.2991,"la2":30.254,"lo1":-89.0895,"lo2":-89.0444,"dy":0.0017,"dx":0.0017,"nx":28,"ny":28,"refTime":"2024-04-16T21:00:00:Z","depth":"4","parameterNumber":2,"parameterNumberName":"U-component_of_CURRENTS"},"data":[0,0,0,0,0,0,0,0,0,0,0,0,0,0,0,0,0,0,0,0,0,0,0,0,0,0,0,0,0,0,0,0,0,0,0,0,0,0,0,0,0,0,0,0,0,0,0,0,0,0,0,0,0,0,0,0,0,0,0.0959,0.096,0,0.1017,0.1017,0.1018,0.1071,0.1072,0.1073,0.1074,0.1126,0.1127,0.1128,0,0,0,0,0,0,0,0,0,0,0,0,0,0.0922,0.0923,0.0959,0.096,0.0961,0.1017,0.1017,0.1018,0.1071,0.1072,0.1073,0.1074,0.1126,0.1127,0.1128,0,0,0,0,0,0,0,0,0,0,0,0,0,0.0954,0.0923,0.0959,0.0994,0.0998,0.1016,0.1017,0.1018,0.1071,0.1072,0.1073,0.1074,0.1126,0.1127,0.1128,0.1114,0,0,0.1131,0.1132,0,0,0,0,0,0,0,0,0.0952,0.0956,0.0988,0.0992,0.0996,0.1038,0.1024,0.105,0.1071,0.1043,0.1074,0.1075,0.1096,0.11,0.1107,0.1116,0.1118,0.1132,0.1132,0.1133,0.1133,0,0,0,0,0,0,0,0.095,0.0954,0.0981,0.0989,0.0994,0.1017,0.1022,0.1029,0.1062,0.1045,0.1049,0.1056,0.1098,0.1106,0.1109,0.1119,0.1131,0.1132,0.1133,0.1134,0.1209,0.121,0,0,0,0,0,0,0.0941,0.0951,0.098,0.0983,0.0977,0.1016,0.1023,0.1023,0.1062,0.107,0.1055,0.1059,0.1104,0.1108,0.1111,0.1171,0.1133,0.1134,0.1134,0.1208,0.1209,0.1211,0,0,0,0,0,0,0.094,0.0943,0.0977,0.0969,0.0975,0.1016,0.1016,0.1024,0.1059,0.107,0.1078,0.1086,0.1105,0.111,0.114,0.117,0.1134,0.1135,0.1206,0.1208,0.121,0.1242,0,0,0,0,0,0,0.0939,0.0942,0.0952,0.0968,0.0976,0.1003,0.1016,0.1024,0.106,0.1066,0.1098,0.1103,0.1106,0.1139,0.1141,0.1171,0.1136,0.1204,0.1207,0.1209,0.124,0.1245,0.125,0,0,0,0,0,0.0937,0.0939,0.0952,0.0956,0.0983,0.1004,0.101,0.1042,0.1061,0.1077,0.1102,0.1103,0.1157,0.114,0.1143,0.1174,0.1203,0.1206,0.1209,0.1237,0.1244,0.125,0,0,0,0,0,0,0.0923,0.0945,0.0959,0.0967,0.0993,0.1013,0.1034,0.1054,0.1087,0.1099,0.1112,0.1118,0.116,0.116,0.1142,0.1205,0.1184,0.1187,0.1204,0.1211,0.1216,0.123,0.1137,0,0,0,0,0,0.0924,0.0939,0.0959,0.0971,0.0983,0.1014,0.1032,0.1053,0.1078,0.1095,0.112,0.1146,0.1169,0.1185,0.1204,0.1229,0.1243,0.1255,0.126,0.1264,0.1279,0.1321,0.1331,0.1221,0.1221,0.1221,0,0,0.0923,0.0937,0.0947,0.0971,0.0994,0.1017,0.1028,0.1059,0.109,0.1093,0.1148,0.1165,0.1181,0.1217,0.1236,0.1224,0.1303,0.1268,0.1272,0.1284,0.1325,0.1336,0.1345,0.1223,0.1222,0.1222,0,0,0.0927,0.0941,0.0959,0.0979,0.1016,0.1033,0.1047,0.1084,0.1115,0.1155,0.1173,0.1209,0.1242,0.1264,0.1276,0.1319,0.133,0.1332,0.1368,0.1408,0.1418,0.1426,0.1454,0.1465,0.1333,0.1333,0.1333,0,0.0934,0.0947,0.0968,0.0989,0.1008,0.1043,0.1065,0.1099,0.1146,0.1173,0.1179,0.1254,0.1265,0.1315,0.1336,0.1332,0.1356,0.1339,0.1415,0.1423,0.1432,0.1459,0.147,0.1335,0.1335,0.1335,0.1334,0,0.0944,0.0966,0.0977,0.1017,0.104,0.1063,0.1104,0.1147,0.1186,0.1216,0.1284,0.1305,0.1354,0.1362,0.1363,0.1432,0.143,0.1416,0.1397,0.1445,0.147,0.1481,0.1338,0.1337,0.1336,0.1336,0,0,0.0942,0.0978,0.0988,0.1002,0.1055,0.1066,0.113,0.1184,0.1227,0.1285,0.1342,0.1392,0.1419,0.1437,0.145,0.1484,0.1555,0.1483,0.1484,0.1507,0.1648,0.1527,0.1527,0.1559,0.1561,0.1563,0.1641,0,0.0954,0.0975,0.1004,0.1038,0.1049,0.1102,0.1152,0.1209,0.1261,0.1326,0.1379,0.1434,0.1444,0.1473,0.1516,0.1545,0.1588,0.1535,0.1602,0.1604,0.1487,0.1537,0.1571,0.165,0.1652,0.1654,0.1655,0,0.0958,0.0971,0.0992,0.1034,0.1048,0.1084,0.1158,0.1209,0.131,0.1356,0.1435,0.1478,0.1561,0.155,0.165,0.1621,0.1651,0.1666,0.1668,0.1554,0.1504,0.1594,0.1676,0.1674,0.1673,0.1671,0.167,0,0.0917,0.0964,0.0973,0.0987,0.1045,0.1084,0.1132,0.1222,0.127,0.1386,0.1436,0.1534,0.1597,0.1655,0.1709,0.1692,0.1801,0.1772,0.1694,0.1685,0.1756,0.1746,0.1849,0.1849,0.1848,0.1848,0.1848,0,0.0893,0.0908,0.0956,0.0961,0.0992,0.1052,0.111,0.1181,0.1285,0.1343,0.1454,0.1519,0.1631,0.1705,0.1737,0.1753,0.1832,0.1715,0.1702,0.1767,0.1757,0.1764,0.1753,0.1851,0.1851,0.185,0.1849,0,0.0827,0.0867,0.0879,0.0942,0.097,0.0989,0.109,0.1131,0.1247,0.1332,0.1379,0.1534,0.1634,0.1717,0.1812,0.1775,0.1799,0.1787,0.1861,0.1849,0.165,0.1641,0.17,0.1696,0.1693,0.1691,0.1689,0,0.0772,0.0777,0.0842,0.0859,0.089,0.0941,0.0985,0.1103,0.1149,0.1327,0.136,0.151,0.16,0.1653,0.1738,0.1787,0.177,0.1764,0.1699,0.1656,0.1639,0.1633,0.1628,0.1684,0.1683,0.1682,0.1682,0,0.0673,0.0719,0.0737,0.0782,0.0825,0.0842,0.0916,0.0949,0.1093,0.1208,0.1323,0.1401,0.1512,0.1596,0.1648,0.1677,0.1749,0.1732,0.1737,0.1677,0.1638,0.1622,0.162,0.1671,0.1673,0.1674,0.1674,0,0.0606,0.0604,0.0662,0.0698,0.073,0.0732,0.0787,0.0866,0.0938,0.1147,0.1185,0.1359,0.15,0.1541,0.1588,0.1605,0.1579,0.1516,0.1532,0.1544,0.1455,0.138,0.1336,0,0,0,0,0,0.0531,0.0553,0.0573,0.0604,0.0627,0.0656,0.0734,0.0801,0.0954,0.1,0.1093,0.1197,0.1302,0.1396,0.1384,0.1497,0.1563,0.1473,0.1492,0.1614,0.1626,0.1534,0,0,0,0,0,0,0.05,0.0519,0.0548,0.0514,0.0522,0.0538,0.0586,0.0693,0.0734,0.0906,0.0982,0.1105,0.1232,0.1301,0.1358,0.138,0.1361,0.1576,0.1572,0.1607,0.1618,0.1627,0.1537,0,0,0,0,0]},{"header":{"parameterUnit":"m.s-1","parameterCategory":2,"la1":30.2991,"la2":30.254,"lo1":-89.0895,"lo2":-89.0444,"dy":0.0017,"dx":0.0017,"nx":28,"ny":28,"refTime":"2024-04-16T21:00:00:Z","depth":"4","parameterNumber":3,"parameterNumberName":"V-component_of_CURRENTS"},"data":[0,0,0,0,0,0,0,0,0,0,0,0,0,0,0,0,0,0,0,0,0,0,0,0,0,0,0,0,0,0,0,0,0,0,0,0,0,0,0,0,0,0,0,0,0,0,0,0,0,0,0,0,0,0,0,0,0,0,0.0244,0.0244,0,0.0232,0.0232,0.0231,0.0222,0.0222,0.0222,0.0221,0.0212,0.0212,0.0212,0,0,0,0,0,0,0,0,0,0,0,0,0,0.023,0.0231,0.0244,0.0244,0.0244,0.0232,0.0232,0.0231,0.0222,0.0222,0.0221,0.0221,0.0212,0.0212,0.0212,0,0,0,0,0,0,0,0,0,0,0,0,0,0.0229,0.0231,0.0244,0.0237,0.0237,0.0232,0.0232,0.0231,0.0222,0.0222,0.0221,0.0221,0.0212,0.0212,0.0212,0.0213,0,0,0.0211,0.0211,0,0,0,0,0,0,0,0,0.0229,0.023,0.0238,0.0238,0.0237,0.0228,0.0223,0.0225,0.0222,0.0227,0.0221,0.0221,0.0218,0.0217,0.0215,0.0213,0.0212,0.0211,0.0211,0.0211,0.0211,0,0,0,0,0,0,0,0.0229,0.023,0.0239,0.0238,0.0237,0.0225,0.0225,0.0224,0.0224,0.0227,0.0226,0.0225,0.0218,0.0215,0.0215,0.0212,0.0211,0.0211,0.0211,0.0211,0.0209,0.021,0,0,0,0,0,0,0.0233,0.023,0.0239,0.0239,0.0233,0.0226,0.0226,0.0231,0.0223,0.0222,0.0225,0.0225,0.0216,0.0215,0.0215,0.0223,0.0211,0.0211,0.0211,0.0209,0.0209,0.021,0,0,0,0,0,0,0.0233,0.0234,0.024,0.0234,0.0234,0.0226,0.0232,0.0231,0.0232,0.0222,0.0221,0.0228,0.0216,0.0215,0.0219,0.0222,0.0211,0.021,0.0209,0.0209,0.0209,0.0235,0,0,0,0,0,0,0.0232,0.0234,0.0241,0.0234,0.0234,0.0241,0.0232,0.0231,0.0231,0.023,0.0224,0.0223,0.0216,0.022,0.0219,0.0222,0.021,0.0209,0.0209,0.0209,0.0234,0.0236,0.0238,0,0,0,0,0,0.0232,0.0241,0.0241,0.0242,0.0243,0.0241,0.024,0.0234,0.0231,0.0233,0.0231,0.0223,0.022,0.022,0.0219,0.0222,0.0209,0.0209,0.0209,0.0234,0.0236,0.0238,0,0,0,0,0,0,0.0235,0.0241,0.0241,0.025,0.0247,0.0239,0.0241,0.0237,0.0237,0.0238,0.0229,0.0228,0.0231,0.0223,0.0223,0.0221,0.0211,0.0211,0.023,0.0232,0.0234,0.0229,0.021,0,0,0,0,0,0.024,0.025,0.0249,0.0256,0.0257,0.025,0.0249,0.0246,0.0243,0.0243,0.0239,0.0234,0.023,0.023,0.0225,0.0228,0.0206,0.0227,0.0229,0.0231,0.0226,0.0197,0.0195,0.021,0.021,0.021,0,0,0.0242,0.0246,0.0252,0.0257,0.0255,0.026,0.0249,0.0251,0.0255,0.0243,0.0248,0.0241,0.0232,0.0234,0.0234,0.023,0.0216,0.0231,0.0233,0.0227,0.0197,0.0195,0.0194,0.0211,0.0211,0.021,0,0,0.0249,0.0257,0.0267,0.027,0.0271,0.0268,0.0271,0.0267,0.0266,0.0271,0.0262,0.0256,0.0256,0.0246,0.0242,0.0251,0.0227,0.025,0.0258,0.023,0.0228,0.0226,0.02,0.0196,0.0252,0.0252,0.0252,0,0.025,0.0266,0.0268,0.0278,0.0284,0.0275,0.0285,0.0282,0.028,0.0281,0.0277,0.0265,0.0259,0.0253,0.0256,0.0254,0.0235,0.0252,0.0232,0.023,0.0227,0.0201,0.0196,0.0253,0.0253,0.0253,0.0253,0,0.0264,0.0279,0.0285,0.0298,0.0303,0.0311,0.031,0.0313,0.0311,0.0305,0.03,0.0286,0.0278,0.0274,0.0269,0.0253,0.0243,0.0238,0.0226,0.0227,0.0199,0.0193,0.0255,0.0255,0.0254,0.0254,0,0,0.0264,0.0291,0.0294,0.0311,0.0318,0.0328,0.0333,0.0337,0.0348,0.033,0.0334,0.0315,0.0302,0.0295,0.0282,0.0256,0.0227,0.0243,0.0241,0.0217,0.0163,0.0155,0.0147,0.0218,0.0217,0.0216,0.0152,0,0.0275,0.0305,0.0312,0.0342,0.036,0.0361,0.0373,0.0375,0.0371,0.0372,0.034,0.0341,0.0312,0.0315,0.028,0.0245,0.0212,0.0245,0.0165,0.0163,0.0155,0.014,0.0213,0.0147,0.0146,0.0145,0.0144,0,0.0287,0.031,0.0344,0.0381,0.0389,0.0405,0.043,0.0442,0.0433,0.0429,0.0405,0.0381,0.0343,0.0322,0.0236,0.0259,0.0211,0.0174,0.0171,0.0147,0.0143,0.0144,0.0133,0.0134,0.0135,0.0135,0.0136,0,0.0297,0.0333,0.0365,0.0378,0.0414,0.0433,0.0453,0.046,0.0486,0.0468,0.0476,0.0413,0.0402,0.0318,0.0236,0.0238,0.0138,0.0134,0.0073,0.0072,0.0089,0.0091,0.0064,0.0064,0.0065,0.0065,0.0065,0,0.0309,0.0339,0.0379,0.0401,0.0455,0.0466,0.0518,0.0524,0.0543,0.0573,0.0512,0.051,0.0401,0.0332,0.0243,0.0138,0.0139,0.0066,0.0051,0.0103,0.0107,0.0085,0.0088,0.0062,0.0063,0.0063,0.0064,0,0.0322,0.0343,0.0391,0.0439,0.0465,0.0507,0.0582,0.062,0.0621,0.0655,0.0653,0.059,0.0492,0.0371,0.0243,0.0163,0.0056,0.0019,0.0081,0.0073,0.0006,0.0012,-0.0058,-0.0059,-0.006,-0.006,-0.0061,0,0.0338,0.0362,0.0429,0.0469,0.0498,0.0568,0.0625,0.0663,0.0701,0.0702,0.0717,0.0638,0.0574,0.0382,0.0248,0.0062,0.0038,-0.002,-0.0016,-0.0002,-0.0008,-0.0002,0.0005,-0.0062,-0.0062,-0.0063,-0.0063,0,0.0372,0.0389,0.0428,0.0507,0.0575,0.0659,0.0732,0.0764,0.0801,0.0801,0.077,0.0664,0.0553,0.0391,0.0245,0.0113,0.0013,-0.0029,-0.0028,-0.0024,-0.0007,-0.0012,-0.0005,-0.0066,-0.0065,-0.0065,-0.0065,0,0.0402,0.0428,0.0473,0.0543,0.0624,0.0708,0.0757,0.0802,0.0844,0.0832,0.0822,0.0691,0.0621,0.0417,0.0282,0.0147,0.0112,0.0069,0.0064,0.0065,0.0115,0.0156,0.0129,0,0,0,0,0,0.0428,0.0449,0.0508,0.0584,0.0661,0.072,0.0805,0.0846,0.0874,0.0862,0.0843,0.0735,0.0532,0.0444,0.0307,0.0258,0.0082,0.0092,0.0028,-0.0081,-0.0078,-0.0041,0,0,0,0,0,0,0.0439,0.049,0.0503,0.0596,0.0657,0.0766,0.0826,0.0861,0.0851,0.0845,0.0742,0.0693,0.0497,0.0607,0.0301,0.026,0.02,-0.0001,-0.0004,-0.0083,-0.008,-0.0077,-0.0039,0,0,0,0,0]}]]